Volver al catálogo

FENGYUN 1C DEB

ActivoSSO
NORAD 30504·DEBRIS·🇨🇳 China

Lanzado May 10, 1999 desde Taiyuan Satellite Launch Center

Loading…

Próximos Pases (próximas 24 horas)

TLE

ActualizadoSource: Space-Track

Época: Sep 14, 2026, 09:11 UTC

1 30504U 99025AHS 26257.38307321  .00000367  00000-0  17844-3 0  9999
2 30504  98.9932 313.8879 0111190 148.8700 211.9126 14.21054381 13076

Sigue FENGYUN 1C DEB en tiempo real con AllMySat

Download on the App Store